Regional Weather Roundup
Issued by NWS Wakefield, VA

Home | Current Version | Previous Version | Graphics & Text | Print | Product List | Glossary On
Versions: 1 2 3 4 5 6 7 8 9 10 11 12 13 14 15 16 17 18 19 20 21 22 23 24 25 26 27
000
ASUS41 KAKQ 251315
RWRAKQ

REGIONAL WEATHER ROUNDUP
NATIONAL WEATHER SERVICE WAKEFIELD VA
900 AM EDT MON JUL 25 2016

Note: "fair" indicates few or no clouds below 12,000 feet with no
significant weather and/or obstructions to visibility. * = Denotes
station may not report precipitation (e.g., rain,snow,etc.),
thunder or fog.

VAZ042-051-052>054-056-251400-
NORTHERN VIRGINIA

CITY           SKY/WX    TMP DP  RH WIND       PRES   REMARKS
WASH NATIONAL  PTSUNNY   88  75  65 S7        29.96F HX  97
DULLES         PTSUNNY   83  74  74 CALM      29.97F
FORT BELVOIR   FAIR      88  74  64 VRB2      29.96F HX  97
QUANTICO       FAIR      86  76  71 S6        29.97F HX  96
FREDERICKSBRG* FAIR      83  75  77 SW3       29.97F
STAFFORD*      FAIR      84  74  70 S5        30.02S
WARRENTON      FAIR      85  72  64 SW3       29.98S
CULPEPER*      FAIR      84  77  79 CALM      29.99S
MANASSAS*      SUNNY     84  75  74 SW3       29.97F
LEESBURG*      FAIR      86  77  74 S3        29.98F HX  97
WINCHESTER     FAIR      81  72  74 SW7       29.99F
FRONT ROYAL*   FAIR      81  73  78 S6        30.00S
LURAY*         FAIR      79  77  94 SW3       30.02S
$$

VAZ048-049-060>072-079>083-251400-
CENTRAL AND SOUTH CENTRAL VIRGINIA

CITY           SKY/WX    TMP DP  RH WIND       PRES   REMARKS
RICHMOND       FAIR      83  74  74 SW8       30.00F
CHESTERFIELD*  FAIR      84  66  54 SW5       30.02F
PETERSBURG*    FAIR      85  77  76 SW8       30.02F HX  95
HANOVER        FAIR      85  72  65 SW8       30.02S
TAPPAHANNOCK*  FAIR      85  74  70 SW8       30.00S
QUINTON*       FAIR      82  76  81 SW6       30.00F
CHARLOTTSVILLE FAIR      86  73  65 VRB3      30.00S
GORDONSVILLE*  FAIR      82  76  79 S3        29.99F
ORANGE*          N/A     82  77  83 S3        30.00F
LOUISA*        FAIR      84  77  79 CALM      29.99F
BUMPASS*       FAIR      82  76  81 SW3       30.00S
FARMVILLE*     FAIR      83  77  82 SW6       30.01S
CREWE*         FAIR      84  77  79 S3        30.02S
FORT PICKETT*  FAIR      82  79  88 SW9       30.03F
CHASE CITY*    FAIR      81  79  92 SW3       30.04F
CLARKSVILLE*   FAIR      81  79  94 SW6       30.04S
SOUTH HILL*    FAIR      82  77  87 SW7       30.09F
LAWRENCEVILLE* FAIR      82  78  86 MISG      30.03F
EMPORIA*       FAIR      81  77  89 S5        30.04F
$$

VAZ088>098-251400-
SOUTHEAST VIRGINIA

CITY           SKY/WX    TMP DP  RH WIND       PRES   REMARKS
NORFOLK        FAIR      86  75  69 SW10      30.02F HX  95
VIRGINIA BEACH PTSUNNY   89  76  65 SW10      30.01F HX 100
NORFOLK NAVAL  FAIR      85  76  74 SW8       30.02F
WEST POINT*    FAIR      83  75  76 S7        30.02F
SALUDA*        FAIR      83  78  85 SW9       29.99F
NEWPORT NEWS   FAIR      84  77  79 SW12      30.01F
LANGLEY AFB    MOSUNNY   84  77  79 S10       30.01F HX  95
FORT EUSTIS    FAIR      86  78  77 VRB6      29.99F HX  97
WILLIAMSBURG*  FAIR      84  77  79 SW6       30.02F
HR EXEC AP*    FAIR      82  77  83 SW6       30.05F
FRANKLIN*      FAIR      82  76  83 S8        30.04S
US460-WAKEFLD  FAIR      83  76  79 SW6       30.02F
$$

VAZ020-022-025-037-045-251400-
WEST CENTRAL AND SOUTHWEST VIRGINIA

CITY           SKY/WX    TMP DP  RH WIND       PRES   REMARKS
STAUNTON*      FAIR      78  71  79 CALM      30.06F
WAYNESBORO*    FAIR      79  71  76 CALM      30.07S
HOT SPRINGS VA FAIR      75  68  78 W8        30.21S
LYNCHBURG      FAIR      79  72  79 SW7       30.06S
DANVILLE       FAIR      80  75  84 SW7       30.05S
SOUTH BOSTON*  FAIR      82  80  92 S3        30.04S
MARTINSVILLE   FAIR      79  72  78 CALM      30.09R
ROANOKE        FAIR      80  71  74 VRB3      30.09S
BLACKSBURG     FAIR      74  71  90 W3        30.17S
DUBLIN*        FAIR      77  71  82 CALM      30.16S
MARION*        PTSUNNY   75  70  84 W7        30.20S
HILLSVILLE*    FAIR      73  70  90 CALM      30.18R
RICHLANDS*     FAIR      75  72  88 CALM      30.19R
WISE*          FAIR      77  68  73 SW5       30.19S
ABINGDON*      PTSUNNY   77  72  83 CALM      30.16S
$$

MDZ021>025-VAZ099-100-251400-
SOUTHERN MARYLAND AND THE DELMARVA PENINSULA

CITY           SKY/WX    TMP DP  RH WIND       PRES   REMARKS
PATUXENT RIVER PTSUNNY   86  73  65 W10       29.96F
BAY BRIDGE APT SUNNY     84  79  84 W6        29.95S HX  96
LEONARDTOWN    MOSUNNY   84  72  65 SW10      29.98F
DOVER          CLOUDY    82  79  91 S5        29.94S
GEORGETOWN     MOSUNNY   85  77  77 SW9       29.97R HX  95
EASTON         MOSUNNY   84  82  94 SW7       29.98F HX 101
CAMBRIDGE      SUNNY     82  77  83 SW5       29.95S
SALISBURY      MOSUNNY   86  77  74 SW9       29.96S HX  97
OCEAN CITY     SUNNY     86  76  71 SW10      29.97R HX  96
WALLOPS ISLAND PTSUNNY   87  77  72 W9        29.98S HX  99
ACCOMACK*      FAIR      86  75  70 SW5G16    29.99F HX  95
$$

NCZ012>017-030>032-251400-
NORTH CENTRAL AND EASTERN NORTH CAROLINA

CITY           SKY/WX    TMP DP  RH WIND       PRES   REMARKS
ROANOKE RAPIDS FAIR      81  77  89 SW6       30.04F
RALEIGH        MOSUNNY   83  76  79 SW8       30.06S
ELIZABETH CITY MOSUNNY   84  77  79 SW9       30.04F
AHOSKIE*       SUNNY     81  78  88 CALM      30.05S
EDENTON*       MOSUNNY   83  82  95 W8        30.06S HX  99
CURRITUCK*     MOSUNNY   84  77  80 SW7       30.05F
KILL DEVIL HLS MOSUNNY   85  78  80 SW6       30.04F HX  97
MANTEO           N/A     83  79  89 W12       30.06F
CAPE HATTERAS  SUNNY     84  76  76 W8G17     30.08S
TARBORO*       FAIR      83  77  84 SW3       30.06S
GOLDSBORO      SUNNY     83  82  95 SW7       30.05F HX  98
WASHINGTON     MOSUNNY   82  77  84 SW7       30.07S
GREENVILLE     SUNNY     82  79  89 SW7       30.08S
NEW BERN       SUNNY     84  77  79 SW8       30.09S
WILMINGTON     SUNNY     84  76  76 SW10      30.09R
$$

VAZ048-251400-
ELSEWHERE

CITY           SKY/WX    TMP DP  RH WIND       PRES   REMARKS
HARRISBURG PA  SUNNY     81  76  84 NW3       29.95S
BALTIMORE      MOSUNNY   86  73  65 W7        29.94F
ANNAPOLIS      MOSUNNY   86  77  74 W5        29.94F HX  97
ANDREWS AFB    FAIR      87  76  71 SW7       29.96F HX  98
PHILADELPHIA   CLOUDY    79  73  82 SE5       29.96R
GREENSBORO     MOSUNNY   83  73  72 SW9       30.07R
ROCKY MOUNT    MOSUNNY   81  78  91 SW7       30.06S
$$

VAZ100-251400-
MARINE

STATION/POSITION TIME  TEMP    WIND        PRES    WAVE   SWELL
                       AIR SEA DIR/SP/G            HT/PER HT/PER
                 (UTC) (F)     (DEG/KT/KT) (MB)    (FT/S) (FT/S)
BRANDYWINE LGT   1200   76     320/  3/  5   N/A
CAPE MAY NJ      1200   78 72  150/  3/  4 1014.0R
LEWES DE         1200   80 72  240/  4/  6 1013.9F
OCEAN-CITY-INLET 1200   82 74  260/  9/ 10 1014.7F
WACHAPREAGUE VA  1200   85 87  240/  5/  9 1015.9R
THOMAS POINT MD  1300   81 83  220/  6/  6 1015.6S
GOOSES REEF MD   1300   85 83  250/ 10/ 14 1015.3F   1/ 3
COVE POINT MD    1200   83     260/ 15/ 19 1015.1S
SOLOMONS ISLAND  1200   84 85  240/  7/  9   N/A
BISHOPS HEAD MD  1200   84 86  220/ 14/ 15 1014.9F
PINEY POINT MD   1200          260/  6/  8   N/A
POTOMAC MD       1300   84 84  260/ 10/ 12 1013.9F   1/ 2
CAMBRIDGE MD     1200   82 85  230/  6/  7 1013.7S
LEWISETTA VA     1200   82 87  260/  8/ 10 1014.9S
RAPPAHANNOCK LGT 1200          220/ 12/ 13 1016.7R
STINGRAY PT      1300   84 85  180/ 12/ 16 1016.0F   1/ 2
YORK RVR RNG VA  1200   83     250/ 12/ 14 1015.7R
YORKTOWN VA      1200   81 84  230/ 11/ 14 1015.9R
JAMESTOWN VA     1300   83 88  250/  8/ 10   N/A     0
DOMINION TERM VA 1200   81     240/ 13/ 14 1016.6R
KIPTOPEKE VA     1200      80  240/ 12/ 14   N/A
CHES BAY BRIDGE  1200   81 80  210/ 13/ 14 1016.4R
CAPE HENRY VA    1200   81     220/  7/ 12   N/A
WILLOUBY STN VA  1200   80     230/ 14/ 16   N/A
CAPE HENRY BUOY  1212      75                N/A     2/ 8
1ST LANDING BUOY 1300   83 80  230/  8/ 10 1016.2F
CAPE CHARLES BUO 1226      71                N/A     2/ 8
OFFSHORE WE BUOY 1221      81                N/A     3/ 5
64NM E OF VA BCH 1250   81 81  240/ 14/ 17 1016.7F   3/ 4   2/ 9
DUCK PIER NC     1200   81 60  240/ 12/ 15 1017.3R
44100 DUCK FRF   1205      74                N/A     2/ 4
44056 DUCK FRF   1211      68                N/A     1/ 8
OREGON INLET NC  1206   81 85  230/ 14/ 17 1018.0R
HATTERAS NC      1200   83 82  250/  7/ 10 1018.2R
DIAMOND SHLS NC  1250   84 85  260/ 12/ 14 1018.7R   3/ 5   2/ 8
CAPE LOOKOUT NC  1200   85     260/  9/ 12 1018.3S
$$




USA.gov is the U.S. government's official web portal to all federal, state and local government web resources and services.